Location: Newark
(46.2358°N, 112.1211°W)
Time: 17:18:51
(UTC+00:00)

QB50P2 - Visible Passes

Search period start: 03 July 2020 00:00
Search period end: 13 July 2020 00:00
Orbit: 595 x 609 km, 97.9° (Epoch: 02 July)

Date Brightness Start Highest point End Pass type
(mag) Time Alt. Az. Time Alt. Az. Time Alt. Az.
03 Jul ? 07:43:46 10° NNE 07:47:47 38° E 07:48:30 35° ESE visible
03 Jul ? 09:19:58 10° NNW 09:23:18 23° WNW 09:25:17 16° WSW visible
04 Jul ? 07:55:22 10° NNE 07:59:33 51° E 08:00:19 44° SE visible
04 Jul ? 09:32:02 10° NNW 09:34:54 18° WNW 09:37:07 13° W visible
05 Jul ? 08:07:01 10° NNE 08:11:17 68° ESE 08:12:08 52° SSE visible
05 Jul ? 09:44:15 10° NNW 09:46:30 14° WNW 09:48:43 10° W visible
06 Jul ? 08:18:43 10° NNE 08:23:01 90° WSW 08:23:57 54° SSW visible
06 Jul ? 09:56:53 10° NW 09:58:03 11° WNW 09:59:14 10° WNW visible
07 Jul ? 06:56:41 10° ENE 06:58:29 12° E 06:58:59 12° E visible
07 Jul ? 08:30:28 10° N 08:34:43 68° WNW 08:35:46 47° SW visible
08 Jul ? 07:07:38 10° NE 07:10:21 16° E 07:10:47 16° E visible
08 Jul ? 08:42:15 10° N 08:46:24 51° WNW 08:47:35 38° WSW visible
09 Jul ? 07:18:54 10° NE 07:22:10 21° E 07:22:36 21° ESE visible
09 Jul ? 08:54:06 10° N 08:58:03 39° WNW 08:59:23 30° WSW visible
10 Jul ? 07:30:19 10° NE 07:33:58 27° E 07:34:24 27° ESE visible
10 Jul ? 09:05:59 10° N 09:09:42 30° WNW 09:11:12 24° WSW visible
11 Jul ? 07:41:49 10° NNE 07:45:46 36° E 07:46:13 35° ESE visible
11 Jul ? 09:17:56 10° NNW 09:21:19 24° WNW 09:23:00 19° W visible
12 Jul ? 07:53:24 10° NNE 07:57:32 48° E 07:58:01 45° ESE visible
12 Jul ? 09:29:58 10° NNW 09:32:56 19° WNW 09:34:48 14° W visible
